EHI
0 0 0 0 0 0 0 0 0 0 0 0 0 0 0 0 0 0 0 0 0 0 0 0 0 0 0 0 0 0 0 0 0 0 0 0 0 0
0 0 0 0 0 0 0 0 0 0 0 0 0 0 0 0 0 0 0 0 0 0 0 0 0 0 0 0 0 0 0 0 0 0 0 0 0 0
0 0 0 0 0 0 0 0 0 0 0 0 0 0 0 0 0 0 0 0 0 0 0 0 0 0 0 0 0 0 0 0 0 0 0 0 0 0
0 0 0 0 0 0 0 0 0 0 0 0 0 0 0 0 0 0 0 0 0 0 0 0 0 0 0 0 0 0 0 0 0 0 0 0 0 0
0 0 0 0 0 0 0 0 0 0 0 0 0 0 0 0 0 0 0 0 0 0 0 0 0 0 0 0 0 0 0 0 0 0 0 0 0 0
0 0 0 0 0 0 0 0 0 0 0 0 0 0 0 0 0 0 0 0 0 0 0 0 0 0 0 0 0 0 0 0 0 0 0 0 0 0
0 0 0 0 0 0 0 0 0 0 0 0 0 0 0 0 0 0 0 0 0 0 0 0 0 0 0 0 0 0 0 0 0 0 0 0 0 0
0 0 0 0 0 0 0 0 0 0 0 0 0 0 0 0 0 0 0 0 0 0 0 0 0 0 0 0 0 0 0 0 0 0 0 0 0 0
0 0 0 0 0 0 0 0 0 0 0 0 0 0 0 0 0 0 0 0 0 0 0 0 0 0 0 0 0 0 0 0 0 0 0 0 0 0
0 0 0 0 0 0 0 0 0 0 0 0 0 0 0 0 0 0 0 0 0 0 0 0 0 0 0 0 0 0 0 0 0 0 0 0 0 0
0 0 0 0 0 0 0 0 0 0 0 0 0 0 0 0 0 0 0 0 0 0 0 0 0 0 0 0 0 0 0 0 0 0 0 0 0 0
0 0 0 0 0 0 0 0 0 0 0 0 0 0 0 0 0 0 0 0 0 0 0 0 0 0 0 0 0 0 0 0 0 0 0 0 0 0
0 0 0 0 0 0 0 0 0 0 0 0 0 0 0 0 0 0 0 0 0 0 0 0 0 0 0 0 0 0 0 0 0 0 0 0 0 0
0 0 0 0 0 0 0 0 0 0 0 0 0 0 0 0 0 0 0 0 0 0 0 0 0 0 0 0 0 0 0 0 0 0 0 0 0 0
0 0 0 0 0 0 0 0 0 0 0 0 0 0 0 0 0 0 0 0 0 0 0 0 0 0 0 0 0 0 0 0 0 0 0 0 0 0
0 0 0 0 0 0 0 0 0 0 0 0 0 0 0 0 0 0 0 0 0 0 0 0 0 0 0 0 0 0 0 0 0 0 0 0 0 0
0 0 0 0 0 0 0 0 0 0 0 0 0 0 0 0 0 0 0 0 0 0 0 0 0 0 0 0 0 0 0 0 0 0 0 0 0 0
0 0 0 0 0 0 0 0 0 0 0 0 0 0 0 0 0 0 0 0 0 0 0 0 0 0 0 0 0 0 0 0 0 0 0 0 0 0
0 0 0 0 0 0 0 0 0 0 0 0 0 0 0 0 0 0 0 0 0 0 0 0 0 0 0 0 0 0 0 0 0 0 0 0 0 0
0 0 0 0 0 0 0 0 0 0 0 0 0 0 0 0 0 0 0 0 0 0 0 0 0 0 0 0 0 0 0 0 0 0 0 0 0 0
0 0 0 0 0 0 0 0 0 0 0 0 0 0 0 0 0 0 0 0 0 0 0 0 0 0 0 0 0 0 0 0 0 0 0 0 0 0
0 0 0 0 0 0 0 0 0 0 0 0 0 0 0 0 0 0 0 0 0 0 0 0 0 0 0 0 0 0 0 0 0 0 0 0 0 0
0 0 0 0 0 0 0 0 0 0 0 0 0 0 0 0 0 0 0 0 0 0 0 0 0 0 0 0 0 0 0 0 0 0 0 0 0 0
Wind_Speed
3 4 3 2 2 2 2 2 4 2 2 3 3 3 3 2 4 3 3 7 8 8 8 9 9 9 9 10 10 11 10 10 10 11 10 10 10 10
3 4 4 2 3 3 2 2 3 3 1 1 2 2 3 4 6 4 4 7 7 8 8 8 8 8 8 9 9 10 10 10 10 10 11 11 10 10
3 4 4 3 3 3 3 3 3 3 3 1 2 3 4 4 4 4 3 3 4 7 8 7 8 8 8 8 9 9 9 10 10 10 10 10 11 11
3 4 3 3 4 3 3 3 2 2 3 1 2 3 3 3 3 3 4 4 3 6 8 7 7 7 7 8 8 8 9 9 10 11 11 11 11 12
3 3 3 4 3 2 3 3 2 3 2 2 1 2 2 3 3 4 4 3 4 5 7 7 8 9 8 8 8 9 9 9 10 10 10 11 12 13
3 3 3 3 3 2 3 2 3 3 3 2 1 2 2 3 2 3 4 3 4 5 5 6 7 9 10 10 9 9 9 9 10 10 11 11 12 13
3 3 3 4 4 3 3 2 3 3 2 2 2 2 2 3 3 2 2 3 3 3 3 4 4 3 5 7 8 10 10 11 11 11 11 11 12 12
3 2 2 3 4 5 5 5 4 3 2 2 1 1 2 2 2 2 2 3 4 3 2 3 3 3 4 3 7 11 11 11 11 11 12 12 12 13
2 2 2 3 3 2 4 5 4 4 4 3 2 1 1 2 1 2 2 1 2 3 2 3 3 3 4 5 10 11 12 12 12 12 13 13 13 14
2 2 2 1 2 3 3 2 2 2 1 1 2 2 1 1 1 1 2 2 3 3 1 3 3 3 5 4 9 12 12 12 13 14 14 14 13 13
1 2 2 2 2 4 3 2 1 2 2 2 2 2 4 4 3 2 2 2 4 4 2 1 3 4 4 4 6 11 11 12 13 14 15 14 14 14
1 1 2 2 2 3 2 2 1 2 1 2 3 4 3 4 5 1 0 1 2 3 3 1 3 3 4 3 3 4 5 10 13 13 14 14 14 8
2 1 1 2 2 3 2 2 2 1 0 0 1 2 2 2 2 2 1 1 1 3 3 1 2 2 3 4 4 4 4 4 5 7 11 14 15 10
3 2 2 2 2 2 1 1 1 2 1 1 1 2 2 2 3 3 2 2 3 4 4 2 2 3 3 4 5 4 4 4 4 5 5 11 12 13
2 3 3 2 1 1 1 2 2 1 1 0 1 2 2 3 3 3 3 3 3 4 4 3 3 3 3 4 5 5 5 5 4 4 5 6 6 6
2 2 3 2 1 1 2 1 0 1 1 1 2 2 2 2 2 2 2 3 3 5 4 4 4 4 4 5 5 6 5 5 5 6 6 6 6 5
3 2 1 1 0 1 1 1 1 0 0 1 1 2 2 2 3 2 2 2 3 4 5 4 4 4 5 5 5 6 6 6 6 6 6 7 6 6
4 2 1 1 2 1 1 1 1 1 1 1 1 2 2 3 3 3 2 2 4 4 5 5 4 5 4 4 6 6 5 5 6 6 5 7 8 6
3 2 2 2 2 2 2 1 2 2 2 1 2 2 2 2 3 3 3 3 4 4 5 4 3 4 6 8 6 4 6 7 6 6 6 6 9 8
2 2 2 2 2 2 2 2 2 1 1 1 1 2 2 2 3 3 4 4 5 5 5 4 3 4 5 8 8 7 8 7 6 7 7 7 7 10
3 2 2 2 2 2 2 2 1 1 1 1 2 2 2 2 3 4 4 6 5 4 5 6 6 9 6 4 6 6 6 9 10 8 8 8 9 7
3 3 3 2 2 2 2 2 1 2 2 2 2 2 3 3 4 4 4 4 4 5 6 6 6 5 4 5 8 9 8 8 10 14 13 11 8 8
4 3 3 3 3 2 2 2 2 2 2 2 2 3 3 3 4 4 4 5 5 6 6 6 5 4 5 6 7 8 10 10 7 7 7 12 16 17
Wind_Direction
71 72 69 56 61 64 86 116 128 107 354 330 344 339 348 14 12 15 13 25 32 33 34 33 30 29 28 26 23 22 20 17 14 12 8 1 359 358
72 71 58 49 55 54 66 68 96 128 123 312 313 322 352 21 23 14 11 21 23 25 26 26 26 26 24 21 18 16 14 11 6 4 1 359 359 355
65 75 63 59 60 49 56 61 65 94 108 331 338 344 11 14 1 2 7 10 6 17 16 17 19 19 17 15 13 9 6 3 1 355 351 351 350 348
78 78 66 71 61 53 62 63 65 79 112 89 348 352 359 353 354 4 5 8 355 8 7 8 7 6 4 4 3 360 357 356 354 351 349 346 342 339
96 98 88 83 69 58 65 64 57 59 74 98 4 340 337 349 355 353 358 350 351 1 359 1 3 5 1 356 355 353 350 349 347 344 342 339 336 334
93 103 100 103 109 97 76 67 73 68 63 68 31 350 333 330 4 350 343 342 343 351 354 358 358 360 358 353 350 346 343 339 337 336 336 334 332 330
81 82 90 96 95 102 101 105 98 87 75 65 36 11 348 348 339 320 330 323 328 343 337 340 343 342 339 339 342 342 340 339 335 331 330 330 330 329
110 83 73 73 77 81 90 95 107 112 115 98 61 22 308 305 312 332 336 351 329 325 341 322 339 322 311 309 328 336 337 337 336 335 332 330 330 328
131 117 87 74 74 82 72 68 69 78 106 139 134 213 252 269 300 336 330 311 279 296 333 309 317 310 305 321 335 339 339 336 335 333 330 331 330 327
140 142 131 119 101 112 99 70 45 25 50 117 160 211 236 246 213 250 264 296 292 302 341 299 307 298 305 308 326 335 336 334 333 330 329 328 327 324
140 135 144 160 123 112 108 100 44 346 15 51 44 23 12 13 23 30 5 0 323 310 327 293 301 303 296 295 315 331 332 330 328 327 326 326 325 323
116 127 145 145 125 115 129 137 149 277 328 2 4 355 348 352 8 41 198 320 306 305 313 314 304 324 314 293 299 310 319 319 322 323 323 322 321 317
159 196 206 144 131 128 131 156 188 210 221 346 337 338 341 340 332 322 255 201 257 276 294 303 293 301 279 294 297 293 297 300 306 311 317 319 318 314
179 206 197 155 134 131 128 106 76 57 59 29 2 332 322 311 303 299 289 269 246 254 273 272 271 277 285 292 293 296 297 293 293 298 302 312 313 310
183 174 160 145 118 82 61 58 62 90 95 51 292 282 279 282 295 305 306 299 296 292 298 275 270 274 261 271 284 290 302 300 290 298 300 301 298 302
169 151 127 112 104 76 42 25 66 160 174 219 254 271 289 303 306 307 308 316 317 306 300 290 279 272 275 274 275 285 286 287 297 298 297 294 293 289
141 103 86 77 45 352 335 321 320 337 284 257 266 288 301 306 302 303 299 306 303 301 307 307 299 281 263 267 283 283 287 290 289 296 301 298 290 290
133 143 181 195 212 233 249 275 276 268 259 254 265 274 288 294 300 304 300 296 295 295 297 303 317 323 315 284 248 274 286 289 294 297 296 299 296 293
143 179 198 211 224 227 228 237 253 261 257 254 259 269 280 288 296 302 304 300 295 292 294 301 310 316 316 313 296 283 298 302 301 300 296 292 294 298
172 195 211 216 219 224 228 239 255 271 269 268 272 279 279 287 295 296 296 292 294 296 300 301 294 291 291 295 295 296 297 295 299 300 300 294 285 287
199 207 214 216 219 223 231 235 242 254 260 265 276 284 287 291 292 291 290 297 298 295 297 295 286 299 292 294 297 295 288 295 299 300 303 303 304 302
203 208 211 209 213 218 220 222 236 254 262 263 273 278 280 280 282 286 289 292 290 288 289 290 296 302 294 293 296 300 300 301 303 304 301 298 301 301
203 205 207 209 213 208 209 220 232 248 252 256 266 274 278 281 281 282 288 289 292 295 297 300 302 298 291 287 292 296 300 305 307 307 301 307 307 299